Temp
63 63 63 63 63 63 64 64 64 64 64 64 64 64 63 63 63 67 72 84 83 82 83 92 91 90 90 84 81 79 59 56 58 60 64 73 76 82 88 83 85 86 79 81 84
63 63 63 63 63 63 63 63 63 64 64 63 63 64 63 63 67 75 86 84 82 82 89 87 85 90 83 84 79 69 57 59 72 65 66 71 78 80 82 80 80 80 82 84 84
63 63 63 63 63 63 63 63 63 63 63 63 63 64 64 63 66 81 87 83 83 82 91 90 89 88 81 83 80 72 65 75 73 72 73 69 76 79 79 73 79 76 79 80 81
63 62 62 62 63 63 63 63 62 62 62 63 63 64 64 65 67 84 82 82 83 89 90 88 86 79 74 74 78 67 79 78 77 76 75 68 74 75 77 77 85 84 84 81 81
62 62 62 62 62 62 62 62 61 61 62 62 63 64 64 66 77 87 82 83 86 87 86 85 83 81 76 77 76 72 77 79 79 77 75 75 67 67 77 84 88 87 86 83 85
61 61 61 61 61 61 61 61 60 61 62 63 63 64 63 67 94 89 87 87 90 86 86 88 86 88 77 69 68 79 78 75 75 73 74 70 67 70 73 76 84 85 82 85 83
61 61 60 60 61 61 61 60 60 61 62 63 64 70 72 77 96 91 90 87 90 89 86 93 93 85 79 68 72 73 71 73 73 73 72 72 63 63 71 74 74 78 81 85 85
61 61 60 61 61 61 60 59 60 62 64 63 65 68 67 96 94 95 93 90 93 92 91 92 93 86 76 77 71 65 65 61 71 74 73 70 56 63 70 70 73 82 83 83 81
61 61 61 61 60 59 59 59 61 66 65 65 62 63 72 88 90 94 94 91 91 90 89 100 90 77 73 66 59 62 58 57 66 76 74 70 61 69 71 74 72 75 81 81 80
61 61 61 60 60 58 58 59 66 63 66 74 79 69 79 82 90 94 95 95 88 87 86 84 77 71 68 64 53 58 59 62 61 68 72 65 63 70 70 72 70 73 78 79 79
61 60 60 59 59 57 59 69 66 66 74 74 76 81 88 90 95 92 95 90 85 79 69 77 66 63 66 66 66 67 66 63 64 74 68 65 63 65 70 69 71 70 73 77 79
60 59 59 59 58 58 56 70 81 84 73 83 85 88 92 91 82 89 92 80 77 70 75 70 64 77 81 74 73 69 66 63 69 72 65 63 59 64 68 70 71 72 71 72 72
59 59 58 57 58 59 72 81 93 91 72 82 88 87 88 89 83 83 87 82 77 71 73 67 74 85 82 78 73 70 67 67 68 70 68 64 55 57 67 75 76 75 75 72 69
59 59 57 55 66 75 79 89 91 91 62 74 79 87 91 88 81 95 91 84 79 73 75 73 83 83 76 75 75 61 80 76 74 66 54 68 48 55 63 66 71 78 73 70 71
59 58 56 55 62 70 83 91 92 83 48 83 83 97 90 81 83 85 94 85 75 77 73 71 77 76 74 77 81 73 83 78 77 66 61 61 56 54 62 63 65 73 75 71 71
58 57 56 68 67 73 83 85 84 59 53 78 86 82 80 82 84 88 85 86 86 79 77 76 86 80 78 84 83 86 77 74 71 62 51 62 63 55 55 62 66 70 76 76 73
56 55 55 66 70 84 83 77 56 52 78 77 77 81 79 75 80 81 77 71 66 57 61 73 77 81 83 73 79 73 62 49 50 46 47 64 63 57 66 70 69 72 75 75 77
54 53 60 67 73 77 76 63 50 70 70 82 82 82 75 79 77 79 74 68 75 72 66 60 60 75 83 74 69 69 63 51 46 44 50 63 54 62 72 73 75 77 75 74 74
54 70 73 78 77 80 67 55 58 68 78 79 78 76 73 80 79 75 72 71 75 75 62 61 67 83 84 83 76 69 59 69 58 53 54 59 68 72 77 71 73 73 73 73 77
54 64 73 86 85 76 61 55 66 78 80 78 67 73 70 75 74 72 72 79 78 83 78 71 63 76 81 83 82 72 73 59 57 51 47 51 55 61 68 72 72 71 67 69 72
60 66 83 91 87 68 56 61 70 79 80 73 71 71 72 71 75 74 75 81 84 84 82 74 66 70 75 69 68 66 63 63 61 60 48 47 53 70 70 69 66 67 67 72 73
67 62 86 89 65 66 62 68 65 75 80 77 77 75 73 74 72 71 73 79 89 86 74 76 66 59 69 79 82 75 68 64 54 55 51 49 53 76 72 69 69 72 73 74 77
58 68 86 84 60 64 70 73 76 74 75 76 75 78 78 72 65 72 76 87 88 83 75 72 62 53 59 70 72 70 73 68 66 61 57 49 52 77 77 74 71 69 69 73 79
60 62 71 76 74 69 66 67 69 81 79 79 77 77 73 69 73 68 74 84 87 87 76 79 66 60 54 61 64 63 70 72 62 54 51 55 57 71 72 73 75 75 76 76 77
63 65 69 60 64 68 68 68 69 70 78 79 71 73 70 64 68 68 75 78 84 81 78 73 61 59 68 73 74 70 70 72 66 64 59 60 62 61 68 73 74 77 77 77 76
60 59 63 62 66 65 64 65 67 69 69 70 69 76 74 65 68 66 72 68 67 71 69 73 61 59 61 73 70 69 73 74 72 71 68 63 64 72 72 74 76 77 77 75 76
65 66 62 58 63 63 63 64 67 71 72 75 74 71 70 72 74 74 75 74 70 65 65 66 63 60 54 69 67 57 68 68 71 73 70 62 66 72 72 73 72 73 76 76 77
MSLP
1016.04 1015.63 1015.23 1014.96 1014.63 1014.33 1014.01 1013.71 1013.43 1013.15 1012.91 1012.69 1012.43 1012.21 1011.96 1011.69 1011.03 1010.93 1009.47 1006.95 1006.67 1006.72 1006.94 1006.53 1006.21 1005.80 1005.73 1005.93 1006.95 1008.70 1011.31 1012.27 1012.17 1012.29 1011.14 1009.59 1008.32 1006.88 1006.46 1006.98 1007.17 1007.65 1009.18 1010.60 1011.56
1016.09 1015.69 1015.22 1014.81 1014.49 1014.14 1013.81 1013.48 1013.19 1012.94 1012.79 1012.56 1012.36 1012.10 1011.91 1011.66 1010.91 1009.16 1006.47 1006.17 1006.14 1006.51 1006.72 1006.37 1005.82 1005.26 1005.39 1005.43 1006.73 1008.10 1010.64 1010.56 1010.15 1010.46 1010.47 1009.40 1008.38 1007.68 1007.02 1007.06 1007.81 1008.83 1009.89 1010.71 1011.42
1016.11 1015.72 1015.29 1014.78 1014.35 1013.99 1013.58 1013.21 1012.94 1012.71 1012.57 1012.40 1012.26 1012.08 1011.83 1011.69 1010.59 1006.73 1004.78 1005.81 1006.10 1006.40 1006.35 1006.07 1005.48 1005.03 1004.86 1005.26 1006.21 1007.62 1008.75 1008.87 1009.40 1009.43 1009.74 1010.02 1008.94 1008.25 1007.61 1008.43 1008.21 1008.79 1009.91 1010.87 1011.41
1016.17 1015.72 1015.25 1014.78 1014.25 1013.82 1013.38 1012.96 1012.63 1012.47 1012.31 1012.22 1012.09 1011.99 1011.78 1011.40 1008.90 1005.54 1005.38 1005.76 1006.14 1006.11 1006.21 1005.76 1005.18 1005.05 1005.44 1005.95 1006.31 1008.09 1007.92 1008.14 1008.62 1008.99 1009.69 1010.29 1009.89 1009.30 1008.47 1008.79 1008.70 1009.19 1009.39 1010.77 1010.88
1016.21 1015.69 1015.18 1014.66 1014.14 1013.59 1013.13 1012.75 1012.39 1012.17 1012.09 1012.00 1011.91 1011.81 1011.65 1010.36 1007.11 1005.29 1005.49 1005.79 1006.05 1006.10 1005.95 1005.45 1004.98 1004.69 1005.36 1006.41 1007.86 1007.68 1007.90 1008.25 1008.82 1009.10 1009.72 1010.42 1010.35 1010.45 1009.72 1009.08 1008.91 1009.26 1009.39 1009.80 1010.36
1016.18 1015.67 1015.12 1014.54 1013.95 1013.35 1012.80 1012.36 1012.07 1011.83 1011.79 1011.78 1011.77 1011.76 1011.29 1008.43 1004.36 1004.74 1005.20 1005.66 1005.52 1005.70 1005.40 1004.84 1004.35 1004.29 1005.76 1007.68 1008.40 1008.23 1007.96 1008.95 1009.68 1009.85 1010.23 1010.62 1011.13 1010.29 1011.10 1010.66 1009.34 1009.25 1009.44 1009.65 1010.34
1016.10 1015.56 1015.01 1014.39 1013.76 1013.16 1012.56 1012.06 1011.67 1011.44 1011.41 1011.53 1011.58 1011.36 1009.81 1006.41 1004.13 1004.62 1004.89 1005.02 1004.93 1004.98 1004.86 1003.92 1003.97 1004.13 1005.66 1008.20 1009.82 1009.67 1008.96 1009.65 1010.06 1010.28 1010.44 1010.49 1011.84 1012.08 1011.24 1010.64 1010.31 1010.06 1009.54 1009.71 1010.42
1016.06 1015.45 1014.85 1014.13 1013.44 1012.86 1012.28 1011.70 1011.35 1011.12 1010.92 1011.28 1011.41 1010.87 1008.06 1003.91 1003.78 1004.12 1004.22 1004.42 1004.32 1004.22 1004.05 1003.73 1003.54 1004.19 1005.97 1007.89 1009.15 1010.05 1009.89 1009.90 1010.20 1010.17 1010.54 1010.88 1012.16 1012.32 1011.67 1011.55 1010.74 1009.71 1009.85 1010.08 1010.41
1016.00 1015.32 1014.60 1013.85 1013.17 1012.54 1011.97 1011.32 1010.89 1010.77 1010.82 1011.02 1011.15 1010.13 1006.38 1003.63 1003.39 1003.44 1003.62 1003.95 1003.99 1003.96 1003.79 1003.65 1003.78 1004.66 1006.58 1007.76 1009.39 1009.24 1009.71 1010.14 1009.92 1009.52 1009.72 1010.82 1011.75 1011.91 1011.76 1011.45 1010.68 1010.23 1010.07 1010.20 1010.34
1015.74 1015.02 1014.21 1013.48 1012.89 1012.27 1011.43 1010.96 1010.42 1010.62 1010.70 1010.45 1009.59 1008.90 1005.44 1003.35 1002.85 1003.04 1003.23 1003.41 1003.74 1003.95 1004.02 1003.97 1004.22 1004.77 1006.00 1007.53 1009.02 1008.87 1008.97 1009.46 1009.33 1009.50 1009.54 1010.48 1011.37 1011.97 1011.90 1011.14 1010.54 1011.02 1010.45 1010.32 1010.53
1015.42 1014.67 1013.90 1013.09 1012.50 1012.18 1011.37 1010.30 1010.59 1009.89 1009.04 1007.48 1006.47 1005.07 1003.23 1002.58 1002.29 1002.86 1003.02 1003.30 1003.55 1004.00 1004.30 1004.07 1004.74 1004.79 1005.67 1005.92 1007.65 1007.83 1007.82 1008.02 1008.74 1008.71 1009.24 1010.75 1011.50 1011.84 1011.62 1011.52 1011.12 1011.23 1011.18 1010.83 1010.74
1015.30 1014.49 1013.55 1012.55 1011.82 1011.74 1011.75 1009.98 1007.07 1005.79 1005.62 1005.17 1004.41 1003.57 1002.55 1001.89 1002.44 1002.62 1002.83 1003.55 1003.69 1004.17 1004.20 1004.33 1004.14 1003.53 1003.96 1004.73 1005.24 1006.26 1006.81 1007.38 1007.54 1008.34 1009.37 1010.67 1011.26 1010.86 1011.01 1010.86 1010.72 1010.63 1011.16 1011.44 1011.46
1015.15 1014.42 1013.48 1012.15 1010.81 1010.79 1009.87 1007.83 1005.76 1005.22 1005.00 1002.70 1002.04 1002.00 1001.47 1001.59 1001.90 1002.09 1002.79 1003.07 1003.58 1004.02 1004.03 1003.79 1002.78 1002.37 1002.52 1003.21 1003.63 1003.92 1004.87 1005.27 1005.82 1007.35 1009.10 1010.00 1011.67 1011.13 1010.33 1010.44 1010.72 1010.83 1010.77 1011.40 1011.90
1015.04 1014.40 1013.71 1012.37 1010.08 1009.65 1008.09 1006.05 1005.29 1004.77 1004.43 1001.49 1000.24 1000.23 1000.56 1001.07 1001.36 1001.31 1001.98 1002.74 1002.93 1003.28 1003.33 1003.06 1001.87 1001.63 1001.40 1001.76 1001.96 1002.48 1002.79 1003.78 1004.69 1006.38 1007.72 1008.31 1010.80 1011.24 1010.90 1010.43 1009.73 1009.55 1010.42 1011.23 1011.94
1014.91 1014.39 1013.87 1013.85 1012.25 1009.98 1007.36 1006.19 1005.38 1005.19 1004.04 999.22 999.24 998.70 999.79 1000.98 1000.51 1000.93 1001.45 1002.18 1002.60 1002.59 1002.78 1002.37 1001.52 1001.05 1001.03 1001.15 1001.22 1001.60 1001.59 1002.71 1003.83 1005.60 1006.34 1008.22 1008.80 1009.93 1010.13 1009.92 1008.71 1008.53 1009.07 1010.32 1011.33
1014.69 1014.21 1013.89 1012.28 1011.75 1008.99 1007.56 1006.68 1005.94 1005.76 1002.66 999.46 999.03 999.29 1000.22 1000.74 1000.60 1000.61 1001.50 1001.95 1002.01 1002.36 1002.20 1001.79 1000.99 1000.71 1000.44 1000.46 1000.63 1000.89 1001.74 1002.69 1003.76 1005.55 1006.68 1006.45 1007.78 1008.75 1009.02 1007.57 1008.03 1008.20 1008.17 1009.21 1010.29
1014.08 1013.46 1013.76 1012.59 1009.81 1007.68 1007.57 1006.94 1006.69 1004.96 1001.12 999.43 999.30 999.47 999.89 1000.46 1000.65 1000.91 1001.58 1002.26 1002.59 1002.71 1002.48 1001.63 1000.88 1000.10 1000.02 1000.24 1000.34 1000.88 1002.24 1004.26 1006.00 1007.05 1007.62 1006.63 1006.44 1006.70 1007.06 1006.60 1006.37 1006.14 1006.97 1008.29 1009.17
1013.58 1012.13 1010.68 1009.99 1008.92 1008.79 1008.16 1007.78 1006.45 1003.46 1001.52 999.66 999.72 999.36 999.68 999.90 1000.20 1000.65 1001.24 1002.03 1002.20 1002.24 1002.33 1001.75 1000.88 999.91 999.55 999.85 1000.26 1001.11 1002.33 1004.35 1006.05 1007.57 1006.89 1006.03 1006.06 1005.28 1005.45 1005.65 1005.55 1005.58 1006.40 1008.02 1008.80
1013.06 1010.68 1009.34 1007.56 1008.20 1008.35 1008.46 1007.62 1005.06 1003.29 1001.25 1000.35 999.96 999.35 999.42 999.30 999.71 1000.13 1000.57 1001.16 1001.20 1001.28 1001.85 1001.10 1000.21 999.25 999.27 999.41 999.94 1000.67 1001.83 1002.67 1004.62 1005.96 1006.84 1006.35 1005.27 1004.34 1004.89 1005.66 1005.68 1006.21 1007.05 1008.10 1008.76
1013.46 1010.82 1007.66 1005.93 1006.95 1007.61 1008.07 1006.49 1004.39 1002.94 1001.96 1001.52 1001.25 1000.34 1000.05 998.97 999.22 999.58 999.87 999.69 999.81 999.80 1000.00 1000.13 1000.40 999.28 999.12 999.29 999.54 1000.11 1000.93 1002.60 1004.33 1005.91 1007.28 1007.87 1007.31 1004.81 1005.00 1005.27 1005.99 1006.64 1006.86 1007.20 1007.69
1012.90 1009.76 1005.44 1005.07 1006.12 1007.21 1007.19 1005.85 1004.49 1003.24 1002.59 1002.14 1001.23 1000.68 1000.25 999.89 999.31 998.87 998.54 998.24 998.24 998.51 998.94 999.49 999.99 999.72 999.29 999.46 999.90 1000.28 1000.90 1002.07 1003.36 1004.84 1006.36 1007.55 1006.20 1003.96 1004.19 1005.39 1006.27 1006.75 1006.67 1005.95 1007.15
1012.29 1009.13 1005.35 1005.43 1006.36 1006.41 1006.06 1005.41 1004.12 1003.15 1002.50 1001.88 1001.31 1000.71 1000.33 999.98 999.69 999.22 998.66 997.43 996.79 997.29 998.29 998.79 999.35 999.85 999.43 999.22 999.23 999.94 1000.50 1001.55 1003.37 1004.40 1005.81 1006.44 1005.32 1003.72 1004.11 1005.49 1006.08 1006.60 1006.72 1006.26 1006.61
1013.25 1009.23 1005.67 1005.52 1005.98 1005.80 1005.19 1004.41 1003.39 1002.71 1001.94 1001.38 1000.89 1000.62 1000.38 1000.29 1000.25 999.43 998.54 997.11 997.14 996.65 997.47 998.28 999.27 999.99 1000.06 999.65 999.40 999.84 1000.21 1000.70 1001.53 1002.80 1004.79 1006.40 1005.87 1004.25 1004.06 1005.41 1006.00 1006.25 1006.83 1006.79 1006.11
1013.76 1009.49 1006.78 1005.91 1005.85 1005.82 1005.28 1004.31 1003.13 1001.72 1001.31 1000.91 1000.68 1000.46 1000.58 1000.65 1000.26 999.79 999.09 997.75 997.37 997.39 997.18 997.68 998.81 999.99 1000.51 1000.88 1001.57 1001.13 1000.66 1000.78 1001.23 1002.99 1004.68 1005.24 1005.38 1004.94 1004.83 1004.87 1005.50 1005.91 1006.10 1006.24 1006.37
1013.62 1010.35 1009.16 1007.83 1006.98 1006.62 1005.82 1004.84 1003.40 1002.18 1001.12 1000.45 1000.47 1000.71 1000.96 1001.19 1000.68 999.99 999.44 998.69 998.24 997.80 997.88 997.97 999.36 999.94 1000.55 1000.64 1001.41 1001.10 1000.91 1000.79 1001.10 1001.81 1002.77 1003.56 1004.54 1005.38 1005.12 1004.69 1004.90 1005.18 1005.72 1006.25 1006.52
1013.89 1012.64 1011.44 1009.95 1008.41 1007.48 1006.40 1005.42 1004.40 1003.37 1002.92 1001.70 1001.16 1000.76 1000.72 1000.98 1000.88 1000.29 999.69 999.59 999.83 999.33 998.96 998.97 999.67 1000.39 1000.83 1000.93 1001.64 1001.80 1001.84 1001.31 1000.05 1000.37 1000.97 1002.13 1003.74 1003.77 1003.53 1003.95 1003.91 1004.55 1005.29 1006.09 1006.39
1014.67 1013.85 1012.79 1010.76 1009.54 1008.29 1007.25 1006.47 1005.41 1004.47 1003.47 1002.89 1002.20 1001.72 1000.56 1000.76 1000.65 1000.44 999.93 999.70 1000.01 1000.25 1000.25 1000.38 1000.82 1001.29 1001.53 1001.45 1001.88 1002.18 1001.21 1000.68 1000.67 999.73 1000.16 1001.64 1002.32 1002.68 1003.35 1003.77 1004.01 1004.59 1004.91 1005.50 1005.97
Wind_Speed
14 14 14 14 14 13 13 13 13 13 12 12 12 11 12 12 16 4 7 9 9 9 4 6 11 15 16 10 6 7 5 3 3 4 4 12 6 7 7 13 15 8 25 21 22
15 15 16 16 15 15 14 13 13 13 12 12 11 11 10 11 5 9 12 8 10 10 4 8 14 13 12 6 4 6 3 9 12 12 7 7 5 1 3 16 21 21 22 23 21
16 16 16 17 17 16 15 15 14 13 12 11 10 10 9 8 4 9 15 12 8 8 5 9 15 18 11 3 4 3 5 7 12 16 9 9 7 6 9 11 17 21 25 23 22
16 16 16 17 18 17 17 16 15 13 12 10 9 8 7 4 1 3 7 8 7 5 6 8 10 10 4 6 4 6 8 8 4 13 11 3 2 7 9 3 19 16 12 24 20
17 17 17 17 18 18 17 16 15 14 11 9 8 6 5 4 10 6 8 7 6 3 6 12 14 10 7 10 7 6 9 12 5 7 8 10 12 5 7 9 19 16 13 9 12
19 19 20 19 18 18 18 17 15 13 10 7 6 3 3 6 7 12 9 8 8 8 9 13 11 8 9 10 8 2 11 14 8 5 5 11 8 9 5 11 6 18 12 10 18
21 21 21 22 19 19 19 18 16 12 8 5 5 4 5 14 8 11 11 10 8 10 12 14 11 6 5 13 5 16 13 8 5 7 4 11 8 3 6 10 12 18 8 14 11
21 22 22 23 21 20 19 19 15 10 6 5 5 5 9 7 11 13 11 10 11 10 10 10 9 7 7 7 5 7 6 4 8 7 5 2 4 12 9 9 10 12 15 10 11
22 22 23 21 21 20 19 20 13 6 2 8 4 4 9 2 6 8 8 9 10 9 7 12 7 4 3 6 4 4 3 4 7 13 9 6 5 8 8 9 6 6 17 14 9
21 20 21 21 20 19 23 11 4 6 4 7 8 5 6 14 6 7 8 7 7 7 8 9 5 4 4 5 4 4 4 6 6 6 8 6 1 8 7 2 8 3 3 12 10
20 21 21 22 21 16 13 0 0 1 6 10 9 8 13 4 7 7 7 7 5 5 7 10 3 8 10 12 8 12 5 8 4 11 5 4 4 11 9 6 12 7 3 5 14
21 22 23 25 24 19 3 4 9 7 7 18 22 19 20 9 5 7 9 6 6 7 9 7 9 14 12 17 20 13 8 8 9 17 6 9 5 4 3 11 10 8 6 2 6
21 21 24 28 30 2 6 10 14 13 6 16 19 18 16 8 8 10 10 10 8 9 10 10 14 16 11 16 12 16 9 8 9 17 9 13 4 4 7 11 11 11 10 6 11
21 21 22 31 5 8 7 11 10 6 4 9 7 10 12 6 9 11 11 9 6 11 12 10 16 13 4 5 6 5 4 13 10 10 6 7 3 11 11 9 13 18 13 14 13
22 21 23 10 9 6 9 17 10 5 5 8 10 6 10 10 8 9 13 9 11 7 6 12 10 6 8 6 9 9 7 5 3 9 3 11 2 1 6 9 14 18 20 18 16
20 22 22 4 5 11 16 16 6 2 8 6 9 11 12 10 11 11 8 7 8 9 8 10 11 7 10 9 10 9 4 2 5 1 1 9 7 7 8 9 5 5 14 19 19
23 25 10 6 6 8 13 5 0 5 8 10 16 14 12 9 12 13 9 7 6 3 7 11 11 6 4 6 7 2 5 4 7 8 5 14 3 7 10 10 10 22 16 9 20
25 30 7 9 9 10 3 2 6 10 13 9 6 16 13 12 13 11 9 7 11 10 8 7 9 9 8 9 9 8 8 7 7 6 5 7 7 6 19 16 11 7 7 4 9
27 4 6 7 12 7 1 5 7 6 8 13 23 9 10 11 12 8 11 12 11 13 9 4 9 9 9 8 4 6 3 10 5 1 2 4 9 7 13 16 13 10 3 4 6
7 5 7 7 13 4 2 6 7 11 16 16 13 7 14 14 12 11 14 16 16 16 10 11 3 5 10 7 9 7 2 4 4 2 3 6 14 3 8 9 16 12 7 3 2
3 5 3 11 9 2 5 6 8 15 15 7 11 18 16 6 6 8 15 12 21 17 12 10 4 3 5 6 8 2 4 4 3 5 7 7 7 7 6 19 16 10 7 7 5
5 4 5 6 3 4 9 7 6 16 19 18 17 13 9 10 13 8 11 11 10 14 10 10 5 4 10 9 11 10 8 8 6 5 4 3 7 6 5 20 17 15 14 11 11
6 6 6 5 4 8 13 19 20 19 19 13 15 11 11 9 8 6 13 13 15 11 10 6 3 1 7 6 3 7 9 7 1 4 4 7 6 2 6 19 15 14 7 8 6
5 5 3 5 6 9 12 13 17 15 18 16 13 8 6 9 12 7 10 9 13 12 6 6 5 8 7 4 3 6 10 12 1 5 3 5 1 10 3 10 14 11 9 7 7
4 3 8 6 9 15 13 14 15 17 16 11 4 5 8 8 13 8 7 9 10 12 6 5 3 1 7 9 11 2 14 18 8 8 6 9 9 9 11 10 12 14 10 9 9
4 5 9 12 12 13 10 12 15 16 14 15 9 11 11 8 8 9 5 2 3 8 5 8 3 1 2 11 9 7 23 16 2 3 4 10 9 14 9 5 10 13 12 11 9
6 6 5 7 11 10 7 14 18 13 12 16 15 18 3 4 10 10 6 2 5 2 4 4 2 2 5 6 6 5 7 6 15 3 3 9 8 9 8 8 6 8 9 10 9
Wind_Direction
348 345 343 340 335 330 324 319 313 311 312 313 315 316 317 318 300 205 241 238 192 167 203 265 241 242 255 263 109 116 92 340 149 302 208 256 279 331 120 146 153 110 126 133 129
351 347 344 340 336 330 324 317 313 312 313 312 316 318 319 328 278 253 242 186 141 155 231 253 270 268 244 232 122 102 111 201 180 177 214 253 270 293 106 92 107 110 122 134 135
352 347 343 340 337 332 325 318 314 312 313 312 314 316 315 313 279 237 199 177 174 170 257 286 281 288 299 79 152 97 151 177 198 180 207 230 60 333 97 82 126 130 136 145 145
348 344 340 338 334 330 326 320 314 311 309 308 308 311 316 265 232 130 147 160 178 220 247 271 272 276 274 90 13 111 122 129 125 185 188 67 255 49 44 179 128 132 150 159 162
347 343 340 336 332 327 323 319 313 308 303 299 299 309 289 229 250 148 158 168 182 184 238 256 277 287 62 85 4 157 131 102 124 150 99 85 50 72 54 46 132 145 164 172 114
347 345 343 340 332 328 325 321 314 306 298 288 278 300 241 256 130 154 179 170 227 188 242 254 263 311 98 47 56 324 108 118 109 116 142 97 70 64 285 327 100 160 175 151 131
346 342 340 337 331 328 325 320 316 305 290 268 241 242 255 246 140 169 191 203 205 229 240 263 305 24 95 116 253 19 97 90 121 140 113 124 65 315 277 354 318 284 159 124 140
345 341 337 331 328 327 322 319 312 301 275 208 209 250 253 254 238 184 192 211 218 234 255 293 305 2 95 156 67 94 314 10 181 184 164 209 197 210 218 245 274 194 134 131 131
342 338 329 325 326 324 319 314 297 297 131 159 189 231 266 246 203 241 196 215 220 242 266 270 290 228 149 85 32 274 176 143 211 211 163 193 139 196 190 229 241 323 146 157 174
336 325 323 322 323 323 319 288 273 305 213 199 259 292 253 242 200 200 219 224 218 221 252 249 267 254 354 128 264 205 142 155 230 237 174 142 100 145 207 102 257 315 186 165 158
329 326 323 320 320 323 337 288 68 179 244 214 185 227 270 177 109 199 184 225 254 199 237 250 234 236 177 153 229 231 151 166 259 197 122 147 50 354 179 173 254 197 329 285 151
327 325 323 320 316 319 252 254 260 312 289 225 243 262 251 139 149 214 172 194 215 209 233 277 227 243 189 172 198 192 179 190 232 164 110 115 109 276 249 196 216 239 181 275 91
326 325 325 323 315 258 225 245 278 300 287 284 244 219 238 149 217 188 157 224 189 221 222 226 247 241 195 188 196 217 199 165 198 171 79 122 83 234 284 208 212 229 191 107 125
327 328 332 331 340 335 282 273 243 314 296 260 184 222 205 184 237 184 172 204 217 212 233 231 254 261 218 319 298 311 137 161 184 162 199 198 207 217 230 207 204 213 162 157 158
326 330 333 322 306 297 301 322 329 350 296 155 156 157 156 170 211 200 170 232 247 230 199 252 256 288 297 228 249 253 169 255 244 193 200 200 104 85 150 200 210 203 189 169 173
322 325 331 321 230 249 288 286 310 302 247 184 144 152 155 211 256 155 155 220 266 274 260 253 274 229 223 252 247 249 172 211 299 306 357 221 158 209 203 206 158 218 190 182 170
318 311 301 279 241 348 328 328 1 228 303 172 162 173 187 185 237 156 170 200 233 230 267 263 257 236 250 248 243 57 3 12 19 7 232 287 332 223 191 195 201 206 200 176 171
319 310 238 208 229 261 277 331 238 242 240 303 173 185 193 189 212 171 174 206 227 248 276 206 256 210 203 210 199 192 176 152 177 206 249 317 140 230 182 192 220 250 168 166 177
315 290 258 225 212 244 210 220 212 225 276 338 336 224 197 195 221 156 177 200 225 221 219 254 275 169 186 224 194 226 171 206 153 321 82 359 316 74 164 199 222 216 203 130 204
314 286 259 225 171 175 208 246 250 258 302 322 315 302 308 193 213 179 190 204 217 222 207 254 295 193 192 186 263 192 232 38 318 232 127 27 274 151 154 147 98 120 102 71 210
249 276 168 133 151 154 224 241 272 275 285 277 283 287 306 337 276 234 211 215 206 221 211 234 165 179 199 182 205 283 265 262 170 149 146 166 252 193 142 124 125 146 143 136 287
306 275 164 153 187 213 229 245 246 271 285 288 294 296 282 305 308 316 304 248 228 194 213 212 206 195 211 236 184 212 229 183 129 289 82 95 302 218 127 136 131 148 173 184 215
305 281 256 187 247 248 252 256 248 250 261 266 270 282 300 298 307 323 312 297 320 168 192 223 225 333 313 352 234 189 252 250 293 83 130 128 252 74 111 135 155 152 191 222 140
286 292 330 216 244 265 284 287 294 287 241 245 267 269 311 311 288 279 301 311 346 322 127 108 164 160 195 180 177 339 329 325 313 81 198 167 157 356 200 113 134 137 142 133 130
250 335 344 310 334 329 318 318 312 298 300 283 234 248 261 275 288 274 280 301 303 284 224 116 174 302 127 177 171 114 324 307 243 178 144 214 147 117 250 142 150 150 155 141 140
310 339 346 298 299 314 307 309 320 332 345 320 323 228 248 245 241 253 269 4 55 317 46 334 214 206 308 114 150 155 241 277 10 358 14 136 150 202 171 180 144 157 150 154 164
4 339 300 293 302 299 322 326 314 322 313 323 338 326 327 347 4 319 321 357 119 354 331 17 328 148 254 159 81 5 268 323 304 200 234 137 204 170 147 159 175 150 149 165 160